Voltar ao catálogo

STARLINK-4116

AtivoComunicaçõesVLEO
NORAD 53164·PAYLOAD·🇺🇸 United States

Lançado Jul 17, 2022 de Cape Canaveral Space Force Station

Loading…

Próximas Passagens (próximas 24 horas)

TLE

AtualizadoSource: CelesTrak SupGP

Época: Sep 14, 2026, 13:49 UTC

1 53164C 22083AJ  26257.57618056 -.00023255  00000+0 -68705-3 0  2578
2 53164  53.1610  33.1420 0001338  94.2938 199.0845 15.34403329    11

Acompanhe STARLINK-4116 em tempo real com AllMySat

Download on the App Store